Location: Kalberh�ni
(46.4610°N, 7.2453°E)
Time: 17:00:57
(UTC+00:00)

Meteor 2-1 Rocket - Pass Details

Date: 01 November 2021
Orbit: 830 x 906 km, 81.3° (Epoch: 28 November)

Event Time Altitude Azimuth Distance (km) Brightness Sun altitude
Rises 03:43:21 0° 360° (N) 3,393 7.4 -26.1°
Reaches altitude 10° 03:46:26 10° 17° (NNE) 2,462 6.9 -25.6°
Maximum altitude 03:50:28 20° 64° (ENE) 1,862 6.7 -24.9°
Drops below altitude 10° 03:54:30 10° 110° (ESE) 2,479 7.5 -24.2°
Sets 03:57:36 0° 127° (SE) 3,424 8.1 -23.7°
